Location: Northcutt
(34.7304°N, 84.4305°W)
Time: 13:47:31
(UTC+00:00)

Hubble Space Telescope - Pass Details

Date: 13 August 2022
Orbit: 531 x 535 km, 28.5° (Epoch: 27 September)

Event Time Altitude Azimuth Distance (km) Brightness Sun altitude
Rises 01:02:21 0° 259° (W) 2,667 5.3 -7.2°
Reaches altitude 10° 01:04:46 10° 249° (WSW) 1,777 4.1 -7.7°
Maximum altitude 01:08:27 32° 185° (S) 922 1.8 -8.4°
Enters shadow 01:11:50 12° 124° (ESE) 1,669 2.6 -9.0°
